Regional Weather Roundup
Issued by NWS

Home | Current Version | Previous Version | Text Only | Print | Product List | Glossary Off
Versions: 1 2 3 4 5 6 7 8 9 10 11 12 13 14 15 16 17 18 19 20 21 22 23 24 25 26 27 28 29 30 31 32 33 34 35 36 37 38 39 40 41 42 43 44 45 46 47 48 49 50

000
ASUS43 KMPX 251610
RWRMN
WEATHER ROUNDUP FOR MINNESOTA
NATIONAL WEATHER SERVICE TWIN CITIES/CHANHASSEN MN
1100 AM CDT FRI JUL 25 2014


NOTE: "FAIR" INDICATES FEW OR NO CLOUDS BELOW 12,000 FEET WITH NO
SIGNIFICANT WEATHER AND/OR OBSTRUCTIONS TO VISIBILITY. N/A MEANS
CURRENT SKY AND/OR WEATHER CONDITIONS ARE NOT AVAILABLE.

MNZ060>063-068>070-251700-
   Twin Cities Metro

CITY           SKY/WX    TMP DP  RH WIND       PRES   REMARKS
TWIN CITIES    CLOUDY    70  64  81 S10       29.81F
ST PAUL        CLOUDY    71  65  81 S15       29.81F
CRYSTAL        CLOUDY    72  64  76 SW10      29.80F
BLAINE         CLOUDY    72  66  83 S14G21    29.81F
LAKEVILLE      CLOUDY    70  64  83 S10       29.82F
EDEN PRAIRIE   CLOUDY    71  65  81 S9        29.81F
SOUTH ST PAUL  CLOUDY    71  65  79 SW12G18   29.81S
LAKE ELMO      CLOUDY    70  64  83 SW12G18   29.83R
$$
MNZ001>005-007-008-013>017-022>024-027-028-251700-
   Northwest Minnesota

CITY           SKY/WX    TMP DP  RH WIND       PRES   REMARKS
BEMIDJI        PTSUNNY   68  62  79 W10       29.79R
HALLOCK        MOSUNNY   73  64  73 CALM      29.73F
ROSEAU         MOSUNNY   70  63  78 SW3       29.77F
WARROAD        CLOUDY    70  64  83 SW5       29.78S
THIEF RVR FALL CLOUDY    68  63  83 SW7       29.78F
CROOKSTON      PTSUNNY   70  64  83 SW7       29.78S
FOSSTON        CLOUDY    72  63  73 SW7       29.79F
DETROIT LAKES  PTSUNNY   72  64  78 SE6       29.80R
MOORHEAD       CLOUDY    72  70  94 SW3       29.78S
PARK RAPIDS    CLOUDY    71  63  75 W12       29.80R
$$
MNZ006-009>011-018-025>026-251700-
   North Central Minnesota

CITY           SKY/WX    TMP DP  RH WIND       PRES   REMARKS
BAUDETTE       CLOUDY    69  63  81 W6        29.79S
FLAG ISLAND    CLOUDY    68  63  83 S7        29.76S
INTL FALLS     PTSUNNY   72  62  71 SW7       29.79S
WASKISH        CLOUDY    70  63  78 SW6       29.79S
BIG FORK       PTSUNNY   70  63  78 SW6       29.80R
LONGVILLE      PTSUNNY   73  64  73 SW9       29.79R
GRAND RAPIDS   CLOUDY    66  63  88 SW7       29.80R
CRANE LAKE     LGT RAIN  68  63  83 CALM      29.81S
ORR            CLOUDY    68  59  73 S3        29.78R
COOK           CLOUDY    68  61  77 CALM      29.82R
$$
MNZ012-019>021-037-251700-
   Northeast Minnesota

CITY           SKY/WX    TMP DP  RH WIND       PRES   REMARKS
DULUTH         CLOUDY    65  58  78 SE3       29.82R
ELY            PTSUNNY   70  61  73 CALM      29.80F
HIBBING        CLOUDY    69  61  75 S5        29.80S
EVELETH        CLOUDY    64  59  82 S3        29.82R
DULUTH HARBOR  CLOUDY    61  55  82 N7        29.81F
TWO HARBORS    CLOUDY    66  57  72 S6        29.80R
SILVER BAY     PTSUNNY   64  63  94 S6        29.80S
GRAND MARAIS     N/A     57  51  80 NE5       29.81F
G MARAIS ARPRT PTSUNNY   68  57  68 SW6       29.85F
$$
MNZ029>031-032-039>041-046>048-054>057-064-251700-
   West Central Minnesota

CITY           SKY/WX    TMP DP  RH WIND       PRES   REMARKS
FERGUS FALLS   CLOUDY    73  64  73 S15       29.75F
MORRIS         SUNNY     73  66  78 S13       29.76S
ALEXANDRIA     CLOUDY    72  65  78 S14       29.80F
ELBOW LAKE     PTSUNNY   73  66  81 S13       29.77S
WADENA         CLOUDY    70  64  83 S15       29.76F
GLENWOOD       MOSUNNY   73  66  78 S14       29.80S
APPLETON       PTSUNNY   77  64  65 S7        29.76F
BENSON         CLOUDY    73  66  78 S13       29.78S
ORTONVILLE     PTSUNNY   75  66  73 S7        29.76F
MADISON        SUNNY     79  68  69 S9        29.76F
WILLMAR        FAIR      75  64  69 S7G16     29.80F
$$
MNZ033>034-036-042>043-049>051-058-059-251700-
   Central Minnesota

CITY           SKY/WX    TMP DP  RH WIND       PRES   REMARKS
ST CLOUD       PTSUNNY   75  65  70 SW12G20   29.80F
SAUK CENTRE    CLOUDY    71  65  81 SE10      29.80F
PAYNESVILLE    CLOUDY    69  65  85 SE7       29.81F
AITKIN         CLOUDY    72  64  78 SW10G16   29.76F
PINE RIVER     MOSUNNY   72  64  78 SW10      29.81S
BRAINERD       PTSUNNY   70  64  81 SW16      29.78F
STAPLES        CLOUDY    70  63  78 S13       29.77F
LONG PRAIRIE   CLOUDY    68  63  83 SE9       29.81S
LITTLE FALLS   MOSUNNY   70  63  78 S13       29.80F
LITCHFIELD     PTSUNNY   73  70  88 S6        29.81F
BUFFALO        CLOUDY    71  64  78 S10       29.82S
MAPLE LAKE     CLOUDY    73  67  83 S5        29.82F
$$
MNZ037-044-045-052-053-251700-
   East Central Minnesota

CITY           SKY/WX    TMP DP  RH WIND       PRES   REMARKS
PRINCETON      CLOUDY    73  66  78 SW9G17    29.81R
MORA           CLOUDY    70  64  83 SW12      29.81S
CAMBRIDGE      PTSUNNY   72  61  68 SW9G16    29.79R
RUSH CITY      CLOUDY    70  64  81 SW9       29.82R
MOOSE LAKE     CLOUDY    68  63  83 SW8       29.79R
HINCKLEY       CLOUDY    70  66  88 SW8       29.80F
CLOQUET        CLOUDY    66  63  88 S3        29.80R
$$
MNZ071>073-080-081-089-090-097-098-251700-
   Southwest Minnesota

CITY           SKY/WX    TMP DP  RH WIND       PRES   REMARKS
MONTEVIDEO     MOSUNNY   77  68  73 SW10G17   29.78F
GRANITE FALLS  SUNNY     75  66  73 S16       29.79F
CANBY          SUNNY     77  65  67 S10       29.78S
MARSHALL       SUNNY     77  64  65 S15       29.78S
REDWOOD FALLS  PTSUNNY   75  64  68 S13G23    29.79F
OLIVIA         CLOUDY    73  64  73 S10G17    29.79F
PIPESTONE      SUNNY     72  64  78 S14       29.80R
WINDOM         MOSUNNY   73  63  68 S13G22    29.81S
WORTHINGTON    MOSUNNY   70  61  73 S13G25    29.83R
JACKSON        MOSUNNY   72  61  68 S14       29.83R
TRACY          SUNNY     75  64  69 S14G21    29.79F
SLAYTON        MOSUNNY   74  64  72 S14G21    29.82R
$$
MNZ065>067-074>077-082>085-091>093-251700-
   South Central Minnesota

CITY           SKY/WX    TMP DP  RH WIND       PRES   REMARKS
MANKATO        PTSUNNY   73  63  68 S8G21     29.83S
NEW ULM        SUNNY     73  66  78 S14       29.80S
ST JAMES       PTSUNNY   77  63  61 S12G18    29.82S
FAIRMONT       MOSUNNY   73  54  49 S18       29.83R
GLENCOE        MOSUNNY   75  65  71 S10G17    29.81F
FARIBAULT      CLOUDY    75  63  64 S13       29.84S
OWATONNA       PTSUNNY   72  64  78 S9G16     29.84F
WASECA         PTSUNNY   73  61  64 S13       29.86S
ALBERT LEA     PTSUNNY   72  66  83 S10       29.85R
$$
MNZ078>079-086>088-094>096-251700-
   Southeast Minnesota

CITY           SKY/WX    TMP DP  RH WIND       PRES   REMARKS
ROCHESTER      CLOUDY    69  63  81 S16       29.87F
RED WING       PTSUNNY   73  64  73 S14       29.80F
STANTON        MOSUNNY   74  65  73 S13G21    29.81F
DODGE CENTER   CLOUDY    68  64  88 S16       29.86F
WINONA         CLOUDY    70  63  78 S6        29.86F
AUSTIN         CLOUDY    70  64  83 S12       29.86S
PRESTON        CLOUDY    65  65  98 S13       29.89F
$$
ABBREVIATIONS USED IN REMARKS
   TC - TEMPERATURES IN CELSIUS
  WCI - WIND CHILL INDEX
   HX - HEAT INDEX
  VSB - VISIBILITY
$$



USA.gov is the U.S. government's official web portal to all federal, state and local government web resources and services.